This is the latest recevied weather packets stored in our database for station/object N8TWM-13. If no packets are shown the sender has not sent any weather packets the latest 10 day(s).
| Time | Temp. | Humidity | Pressure | Rain* | Wind** | Luminosity | Snow |
|---|---|---|---|---|---|---|---|
| 1777479383 | 12.22° C | 93% | 1009.9 hPa | 0 mm | - | 129 W/m² | - |
| 1777479079 | 12.22° C | 93% | 1009.8 hPa | 0 mm | - | 179 W/m² | - |
| 1777478776 | 12.22° C | 93% | 1009.3 hPa | 0 mm | - | 150 W/m² | - |
| 1777478472 | 12.78° C | 93% | 1009.5 hPa | 0 mm | - | 212 W/m² | - |
| 1777478170 | 12.78° C | 93% | 1009.6 hPa | 0 mm | - | 168 W/m² | - |
| 1777477865 | 12.78° C | 93% | 1009.5 hPa | 0 mm | - | 213 W/m² | - |
| 1777477561 | 12.78° C | 93% | 1009.7 hPa | 0 mm | - | 228 W/m² | - |
| 1777477258 | 12.22° C | 93% | 1009.6 hPa | 0 mm | - | 163 W/m² | - |
| 1777476954 | 12.22° C | 93% | 1009.7 hPa | 0 mm | - | 198 W/m² | - |
| 1777476652 | 12.22° C | 93% | 1009.9 hPa | 1.78 mm | - | 162 W/m² | - |
| 1777476349 | 12.22° C | 93% | 1009.9 hPa | 3.05 mm | - | 114 W/m² | - |
| 1777476044 | 12.22° C | 92% | 1010 hPa | 4.32 mm | - | 42 W/m² | - |
| 1777475740 | 12.22° C | 92% | 1010.1 hPa | 6.1 mm | - | 47 W/m² | - |
| 1777475437 | 12.22° C | 92% | 1010.4 hPa | 6.1 mm | - | 37 W/m² | - |
| 1777475132 | 12.22° C | 91% | 1010.5 hPa | 4.83 mm | - | 28 W/m² | - |
| 1777474829 | 12.22° C | 91% | 1010.6 hPa | 4.83 mm | - | 21 W/m² | - |
| 1777474524 | 12.22° C | 91% | 1010.3 hPa | 3.05 mm | - | 30 W/m² | - |
| 1777474222 | 12.22° C | 90% | 1010.4 hPa | 1.78 mm | - | 33 W/m² | - |
| 1777473919 | 12.22° C | 90% | 1010.3 hPa | 0 mm | - | 31 W/m² | - |
| 1777473617 | 12.22° C | 91% | 1010 hPa | 0 mm | - | 42 W/m² | - |
| 1777473312 | 12.22° C | 91% | 1009.7 hPa | 0 mm | - | 121 W/m² | - |
| 1777473009 | 12.22° C | 91% | 1009.7 hPa | 0 mm | - | 200 W/m² | - |
| 1777472705 | 12.22° C | 92% | 1009.5 hPa | 0 mm | - | 161 W/m² | - |
| 1777472401 | 12.22° C | 92% | 1009.6 hPa | 0 mm | - | 158 W/m² | - |
| 1777472100 | 11.67° C | 92% | 1009.8 hPa | 0 mm | - | 142 W/m² | - |
* Rain latest hour (hover to see other rain measurements)
** Current wind speed in m/s (hover to see current wind gust speed)